Location: Unspecified
(0.0000°N, 0.0000°E)
Time: 02:56:54
(UTC+01:00)

ASC 2 Rocket - Visible Passes

Search period start: 28 February 2015 00:00
Search period end: 10 March 2015 00:00
Orbit: 556 x 2348 km, 24.0° (Epoch: 26 February)

Date Brightness Start Highest point End Pass type
(mag) Time Alt. Az. Time Alt. Az. Time Alt. Az.
28 Feb 6.6 06:06:44 10° S 06:09:46 13° SSE 06:13:35 10° SE visible
28 Feb 4.9 20:43:52 10° NW 20:50:08 29° NNE 20:50:20 29° NNE visible
01 Mar 5.7 19:36:34 10° NW 19:43:36 25° NNE 19:48:51 10° ENE visible
01 Mar 5.5 21:40:37 10° WNW 21:43:51 26° NW 21:43:51 26° NW visible
02 Mar 6.5 05:57:38 10° S 06:00:46 13° SSE 06:04:45 10° SE visible
02 Mar 4.4 20:33:26 10° NW 20:41:13 43° NNE 20:42:30 38° NE visible
03 Mar 5.4 19:25:53 10° NW 19:34:39 34° NNE 19:40:48 10° E visible
03 Mar 4.8 21:30:41 10° WNW 21:36:04 45° WNW 21:36:04 45° WNW visible
04 Mar 6.3 05:48:18 10° S 05:51:41 15° SSE 05:56:04 10° ESE visible
04 Mar 4.3 20:23:05 10° WNW 20:32:07 62° NNE 20:34:45 36° E visible
04 Mar 6.6 22:28:45 10° W 22:29:39 13° W 22:29:39 13° W visible
05 Mar 6.1 06:42:56 10° SSW 06:48:42 30° SSE 06:56:59 10° E visible
05 Mar 4.4 21:20:50 10° WNW 21:28:20 61° SW 21:28:20 61° SW visible
06 Mar 6.0 05:38:52 10° SSW 05:42:33 17° SSE 05:47:21 10° ESE visible
06 Mar 4.4 20:12:48 10° WNW 20:22:51 84° NNE 20:27:02 26° ESE visible
06 Mar 6.3 22:19:34 10° W 22:21:56 18° WSW 22:21:56 18° WSW visible
07 Mar 5.6 06:33:43 10° SW 06:39:18 37° SSE 06:47:31 10° E visible
07 Mar 4.7 21:11:04 10° W 21:19:35 48° SSW 21:20:36 45° S visible
08 Mar 5.7 05:29:54 12° SSW 05:33:23 21° SSE 05:38:32 10° ESE visible
08 Mar 4.8 20:02:35 10° WNW 20:13:24 75° SSW 20:19:17 16° ESE visible
08 Mar 6.2 22:10:32 10° WSW 22:14:11 19° SW 22:14:11 19° SW visible
09 Mar 5.0 06:24:34 10° SW 06:29:55 47° SSE 06:37:55 10° E visible
09 Mar 5.4 21:01:25 10° W 21:10:10 38° SSW 21:12:49 28° SSE visible
